Powrót do katalogu

CZ-6A DEB

AktywnySSO
NORAD 54538·DEBRIS·🇨🇳 China

Wystrzelony Nov 11, 2022 z Taiyuan Satellite Launch Center

Loading…

Następne Przeloty (najbliższe 24 godziny)

TLE

ŚwieżeSource: Space-Track

Epoka: Sep 14, 2026, 07:11 UTC

1 54538U 22151KN  26257.29983686 -.00000037  00000-0  38310-5 0  9990
2 54538  98.8750 218.2329 0120185 189.3383 170.5544 13.95834180195286

Śledź CZ-6A DEB w czasie rzeczywistym z AllMySat

Download on the App Store